Regional Weather Roundup
Issued by NWS

Home | Current Version | Previous Version | Text Only | Print | Product List | Glossary On
Versions: 1 2 3 4 5 6 7 8 9 10 11 12 13 14 15 16 17 18 19 20 21 22 23 24 25 26 27 28 29 30 31 32 33 34 35 36 37 38 39 40 41 42 43 44 45 46 47 48 49 50
000
ASUS45 KBOU 011410
RWRCO

WEATHER ROUNDUP FOR COLORADO
NATIONAL WEATHER SERVICE DENVER/BOULDER CO
800 AM MDT SAT AUG 01 2015

NOTE: "FAIR" INDICATES FEW OR NO CLOUDS BELOW 12000 FEET WITH NO
SIGNIFICANT WEATHER AND/OR OBSTRUCTIONS TO VISIBILITY.

COZ001>005-013-030-031-011500-
...NORTHWEST COLORADO...

CITY           SKY/WX    TMP DP  RH WIND       PRES   REMARKS
CRAIG          SUNNY     54  38  54 CALM      30.31R
HAYDEN         SUNNY     57  36  44 E8        30.32S
MEEKER         SUNNY     58  38  47 CALM      30.32R
MOUNT WERNER   NOT AVBL
STEAMBOAT SPGS SUNNY     52  39  60 CALM      30.35R
WALDEN         SUNNY     52  41  66 SE5       30.42S
$$

COZ006>008-011-011500-
...WEST CENTRAL VALLEYS...

CITY           SKY/WX    TMP DP  RH WIND       PRES   REMARKS
GRAND JUNCTION SUNNY     69  44  40 SE6       30.20R
MONTROSE       MOSUNNY   66  49  54 SE5       30.30R
EAGLE          SUNNY     59  43  55 CALM      30.37S
RIFLE          SUNNY     64  43  46 CALM      30.28R
DELTA          MOSUNNY   69  48  47 E7        30.26R
NUCLA          MOSUNNY   64  46  52 E7        30.34R
$$

COZ017>023-064>068-011500-
...SOUTHWEST COLORADO...

CITY           SKY/WX    TMP DP  RH WIND       PRES   REMARKS
DURANGO        PTSUNNY   62  55  77 CALM      30.37R
CORTEZ         MOSUNNY   66  59  78 E5        30.30R
PAGOSA SPRINGS PTSUNNY   57  54  91 CALM      30.44R
TELLURIDE      CLOUDY    56  49  78 SE3       30.53R
WOLF CREEK PAS NOT AVBL
$$

COZ009-010-012-014-032>034-037-058>063-011500-
...CENTRAL COLORADO...

CITY           SKY/WX    TMP DP  RH WIND       PRES   REMARKS
ASPEN          SUNNY     58  44  60 CALM      30.42R
BUENA VISTA    CLOUDY    56  46  69 NW7       30.44S
COPPER MTN     SUNNY     54  34  47 W14       30.72R
BERTHOUD PASS  FAIR      46  36  66 NW14      30.76S
COTTONWOOD PAS CLOUDY    59  43  55 SE6       30.56R
GUNNISON       MOSUNNY   54  45  71 CALM      30.47S
KREMMLING      SUNNY     54  43  66 CALM      30.42S
LEADVILLE      SUNNY     51  40  65 N5        30.56R
MONARCH PASS   CLOUDY    48  41  76 SW13      30.81R
SALIDA         NOT AVBL
SUNLIGHT       SUNNY     55  37  50 CALM      30.65S
WILKERSON PASS MOSUNNY   50  41  71 W7        30.67S
$$

COZ069>075-011500-
...SAN LUIS VALLEY/SANGRE DE CRISTO MOUNTAINS...

CITY           SKY/WX    TMP DP  RH WIND       PRES   REMARKS
ALAMOSA        CLOUDY    58  53  84 CALM      30.41S
LA VETA PASS   PTSUNNY   50  43  76 MISG      30.56S
SAGUACHE       CLOUDY    59  48  67 NW8       30.44S
$$

COZ035-036-038>040-011500-
...NORTHERN COLORADO FRONT RANGE...

CITY           SKY/WX    TMP DP  RH WIND       PRES   REMARKS
DENVER INTL AP MOSUNNY   72  54  53 SW8       30.19S
DMNS CITY PARK   N/A     72  52  49 W2        30.20R
AURORA         MOSUNNY   70  55  59 SW8       30.22R
FRONT RANGE AP MOSUNNY   72  55  56 S9        30.21
ERIE MUNI ARPT SUNNY     68  53  57 NW6       30.18S
BOULDER MUN AP SUNNY     68  50  52 CALM      30.20R
CENTENNIAL     MOSUNNY   71  51  49 SW9       30.23S
BROOMFIELD     NOT AVBL
FORT COLLINS   SUNNY     66  54  63 N7        30.18F
LONGMONT       SUNNY     71  53  53 CALM      30.19S
$$

COZ041-046-047-076>085-087-088-011500-
...PIKES PEAK/PALMER DIVIDE AND SOUTHERN FOOTHILLS...

CITY           SKY/WX    TMP DP  RH WIND       PRES   REMARKS
COLO. SPRINGS  MOSUNNY   67  60  78 CALM      30.28F
A. F. ACADEMY  MOSUNNY   62  56  81 SE2       30.30S
ELLICOTT       MOSUNNY  N/A N/A N/A N6        30.27S
FALCON         PTSUNNY   64  61  91 SW3       30.33S FOG
FORT CARSON    PTSUNNY   67  58  73 N5        30.24F
LIMON          SUNNY     64  59  83 CALM      30.23S
MONUMENT HILL  SUNNY     64  54  68 S9        30.31S
TRINIDAD       SUNNY     71  55  56 W8        30.25F
$$

COZ042>045-048>051-090-091-011500-
...NORTHEAST COLORADO...

CITY           SKY/WX    TMP DP  RH WIND       PRES   REMARKS
GREELEY ARPT   SUNNY     64  54  68 CALM      30.17S
AKRON          SUNNY     73  63  70 S12G20    30.16F
BURLINGTON     SUNNY     72  63  73 S12       30.17S
WRAY           SUNNY     74  63  69 SW7       30.13S
STERLING       SUNNY     68  61  77 S3        30.12S
HOLYOKE        NOT AVBL
FORT MORGAN    SUNNY     69  59  71 CALM      30.16S
$$

COZ086-089-092>099-011500-
...SOUTHEAST COLORADO...

CITY           SKY/WX    TMP DP  RH WIND       PRES   REMARKS
PUEBLO         SUNNY     70  59  68 CALM      30.19S
LA JUNTA       SUNNY     70  63  78 CALM      30.15F
LAMAR          SUNNY     71  64  78 NE6       30.12F
SPRINGFIELD      N/A     71  65  81 S10       30.16F
$$


USA.gov is the U.S. government's official web portal to all federal, state and local government web resources and services.